Location: Unspecified
(22.6800°N, 112.2000°E)
Time: 06:22:26
(UTC+08:00)

ISS - Visible Passes

Search period start: 06 May 2021 00:00
Search period end: 16 May 2021 00:00
Orbit: 418 x 421 km, 51.6° (Epoch: 05 May)

Date Brightness Start Highest point End Pass type
(mag) Time Alt. Az. Time Alt. Az. Time Alt. Az.
13 May -0.4 05:11:49 10° N 05:13:35 13° NE 05:15:21 10° ENE visible
13 May -3.3 20:10:00 10° SSW 20:13:06 37° SE 20:13:20 36° ESE visible
14 May -2.2 19:23:25 10° S 19:25:46 18° SE 19:28:06 10° E visible
14 May -1.1 20:59:47 10° W 21:02:24 21° NW 21:05:01 10° N visible
15 May -2.7 05:12:20 10° NNW 05:15:36 50° NE 05:18:53 10° SE visible
15 May -2.4 20:11:44 10° WSW 20:14:54 41° NW 20:18:06 10° NNE visible
